sat.trackr.live / text

‹ back to catalog

STARLINK-37592

NORAD 69025 · 2026-101A

PAYLOAD ACTIVE UNKNOWN

§ Identity

Operator
Country
US
Launch date
2026-05-06
Launch site
AFWTR
Launch vehicle
Mass (kg)
RCS (m²)

Purposes: comms

External: N2YO · Heavens-Above · Gunter

§ Orbital elements

Epoch: 2026-09-20T00:49:10.750944Z

Period
93.91 min
Inclination
97.2837°
Eccentricity
0.0001787
Mean motion
15.33424674 rev/d
Perigee alt
464.4 km
Apogee alt
466.8 km
Semi-major
6,843.7 km
B*
3.3242e-4
RAAN
116.4678°
Arg perigee
89.6798°
Mean anomaly
270.4650°
Rev number
2,110

§ Raw data

STARLINK-375921 69025U 26101A   26263.03415221  .00010665  00000+0  33242-3 0  99932 69025  97.2837 116.4678 0001787  89.6798 270.4650 15.33424674 21100

JSON: /api/v1/satellites/69025 · /tle

For live sub-satellite position, see the globe view (requires WebGL).

§ Visibility from observer

Set your observer location to see the next 7 days of passes ≥ 10°. The values pass through the URL so the page stays shareable.

No JS? Fill the form by hand. The geolocation button needs JavaScript.